Location: Unspecified
(0.0000°N, 0.0000°E)
Time: 12:00:54
(UTC+00:00)

Explorer 11/Cluster Stage 4 - Visible Passes

Search period start: 15 May 2025 00:00
Search period end: 25 May 2025 00:00
Orbit: 463 x 1190 km, 28.8° (Epoch: 14 May)

Date Brightness Start Highest point End Pass type
(mag) Time Alt. Az. Time Alt. Az. Time Alt. Az.
15 May 8.3 04:14:31 28° SSW 04:14:31 28° SSW 04:20:13 10° SSE visible
16 May 8.8 03:54:17 22° S 03:54:17 22° S 03:57:50 10° SSE visible
17 May 9.3 03:33:54 15° SSE 03:33:54 15° SSE 03:35:23 10° SSE visible
